Home > Weather > Alwar > Past weeks

Flag for India Past Weather in Alwar, Rajasthan, India — Yesterday and Last 2 Weeks

Now
90 °F

Partly sunny.


Feels Like: 100 °F
Forecast: 81 / 92 °F
Wind: 5 mph from South

Location: Jaipur / Sanganer

Current Time: Aug 26, 2016 at 4:10:10 PM

Latest Report: Aug 26, 2016 at 3:30 PM


Visibility: 3 mi

Pressure: 29.71 "Hg

Humidity: 63%

Dew Point: 75 °F

Location of AlwarLocation

Past Weather in Alwar — Graph

°F

Alwar Temperature Yesterday

Maximum temperature yesterday: 86 °F (at 1:30 PM)
Minimum temperature yesterday: 77 °F (at 5:00 AM)
Average temperature yesterday: 81 °F

High & Low Weather Summary for the Past Weeks

 TemperatureHumidityPressure
High90 °F (Aug 13, 4:30 PM)100% (Aug 11, 7:30 PM)29.92 "Hg (Aug 11, 7:30 PM)
Low75 °F (Aug 11, 11:30 PM)59% (Aug 16, 4:00 PM)29.50 "Hg (Aug 20, 3:00 PM)
Average81 °F84%29.63 "Hg
* Reported Aug 11 3:00 PM — Aug 26 2:30 PM, Alwar, Weather by CustomWeather, © 2016

Note: Actual official high and low records may vary slightly from our data, if they occured in-between our weather recording intervals... More about our weather records

Advertising

Alwar Weather History for the Previous 24 Hours

Scroll right to see more
 ConditionsComfort  
Time TempWeatherWind HumidityBarometerVisibility
2:30 PM
Fri, Aug 26
90 °FPartly sunny.5 mph63%29.74 "Hg3 mi
2:00 PM90 °FPartly sunny.6 mph63%29.74 "Hg3 mi
1:30 PM90 °FPartly sunny.6 mph59%29.74 "Hg3 mi
1:00 PM88 °FPartly sunny.6 mph66%29.74 "Hg3 mi
12:00 PM84 °FScattered clouds.No wind79%29.77 "Hg3 mi
11:30 AM84 °FScattered clouds.No wind79%29.80 "Hg3 mi
10:30 AM84 °FScattered clouds.No wind79%29.80 "Hg3 mi
9:30 AM82 °FBroken clouds.No wind84%29.80 "Hg3 mi
8:30 AM81 °FBroken clouds.3 mph89%29.80 "Hg2 mi
8:00 AM81 °FFog.No wind89%29.80 "Hg2 mi
7:30 AM79 °FFog.No wind94%29.77 "Hg2 mi
7:00 AM79 °FFog.2 mph94%29.77 "Hg2 mi
5:30 AM77 °FPassing clouds.3 mph94%29.71 "Hg2 mi
5:00 AM77 °FPassing clouds.3 mph94%29.71 "Hg2 mi
2:00 AM77 °FHaze.3 mph94%29.74 "Hg3 mi
1:00 AM79 °FHaze.3 mph89%29.74 "Hg3 mi
11:30 PM
Thu, Aug 25
81 °FHaze.No wind84%29.74 "Hg3 mi
11:00 PM81 °FPassing clouds.3 mph84%29.74 "Hg3 mi
10:00 PM81 °FPassing clouds.3 mph89%29.74 "Hg3 mi
9:30 PM81 °FPassing clouds.3 mph84%29.74 "Hg3 mi
9:00 PM81 °FPassing clouds.3 mph84%29.74 "Hg3 mi
8:30 PM81 °FPassing clouds.2 mph84%29.74 "Hg3 mi
8:00 PM82 °FPassing clouds.2 mph79%29.71 "Hg3 mi
7:30 PM82 °FPassing clouds.5 mph79%29.71 "Hg3 mi
7:00 PM84 °FScattered clouds.6 mph74%29.71 "Hg4 mi
6:00 PM86 °FScattered clouds.6 mph70%29.68 "Hg4 mi
4:00 PM86 °FScattered clouds.7 mph70%29.68 "Hg4 mi
Weather by CustomWeather, © 2016

See weather overviewHow to use our weather pages